Time,TemperatureF,DewpointF,PressureIn,WindDirection,WindDirectionDegrees,WindSpeedMPH,WindSpeedGustMPH,Humidity,HourlyPrecipIn,Conditions,Clouds,dailyrainin,SoftwareType,DateUTC
2013-06-08 16:20:00,86.2,64.2,29.77,SSE,157,2.7,-999.0,48,-99.99,,,0.00,Acu-Link.com,2013-06-08 20:20:00,
2013-06-08 16:35:00,88.5,63.1,29.77,SSE,157,2.7,-999.0,43,-99.99,,,0.00,Acu-Link.com,2013-06-08 20:35:00,
2013-06-08 16:50:00,87.6,63.6,29.76,WNW,292,2.7,-999.0,45,-99.99,,,0.00,Acu-Link.com,2013-06-08 20:50:00,
2013-06-08 17:05:00,82.2,65.9,29.78,ESE,112,3.7,-999.0,58,-99.99,,,0.00,Acu-Link.com,2013-06-08 21:05:00,
2013-06-08 17:20:00,80.6,66.4,29.79,SE,135,2.2,-999.0,62,-99.99,,,0.00,Acu-Link.com,2013-06-08 21:20:00,
2013-06-08 17:35:00,74.3,67.4,29.80,NNE,22,4.7,-999.0,79,-99.99,,,0.01,Acu-Link.com,2013-06-08 21:35:00,
2013-06-08 17:50:00,69.6,67.5,29.80,NNW,337,0.0,-999.0,93,-99.99,,,0.19,Acu-Link.com,2013-06-08 21:50:00,
2013-06-08 18:05:00,69.4,68.2,29.79,NW,315,3.2,-999.0,96,-99.99,,,0.22,Acu-Link.com,2013-06-08 22:05:00,
2013-06-08 18:21:00,69.6,66.9,29.79,ENE,67,1.7,-999.0,91,-99.99,,,0.22,Acu-Link.com,2013-06-08 22:21:00,
2013-06-08 19:07:00,69.6,69.0,29.79,NW,315,2.2,-999.0,98,-99.99,,,0.22,Acu-Link.com,2013-06-08 23:07:00,
2013-06-08 19:22:00,69.3,68.4,29.80,NW,315,0.0,-999.0,97,-99.99,,,0.22,Acu-Link.com,2013-06-08 23:22:00,
2013-06-08 19:38:00,69.4,69.1,29.82,NNW,337,0.0,-999.0,99,-99.99,,,0.22,Acu-Link.com,2013-06-08 23:38:00,
2013-06-08 19:53:00,69.6,69.3,29.82,NNW,337,1.7,-999.0,99,-99.99,,,0.22,Acu-Link.com,2013-06-08 23:53:00,
2013-06-08 20:08:00,69.4,68.8,29.82,ESE,112,0.0,-999.0,98,-99.99,,,0.22,Acu-Link.com,2013-06-09 00:08:00,
2013-06-08 20:23:00,69.3,69.0,29.83,WNW,292,0.0,-999.0,99,-99.99,,,0.22,Acu-Link.com,2013-06-09 00:23:00,
2013-06-08 20:38:00,68.9,68.6,29.84,North,0,0.0,-999.0,99,-99.99,,,0.22,Acu-Link.com,2013-06-09 00:38:00,
2013-06-08 20:53:00,68.9,68.6,29.84,NNW,337,0.0,-999.0,99,-99.99,,,0.22,Acu-Link.com,2013-06-09 00:53:00,
2013-06-08 21:08:00,68.9,68.3,29.86,ENE,67,0.0,-999.0,98,-99.99,,,0.22,Acu-Link.com,2013-06-09 01:08:00,
2013-06-08 21:23:00,68.9,68.0,29.88,SE,135,0.0,-999.0,97,-99.99,,,0.22,Acu-Link.com,2013-06-09 01:23:00,
2013-06-08 21:38:00,68.9,67.4,29.88,ESE,112,0.0,-999.0,95,-99.99,,,0.22,Acu-Link.com,2013-06-09 01:38:00,
2013-06-08 21:54:00,69.3,67.5,29.89,South,180,1.7,-999.0,94,-99.99,,,0.22,Acu-Link.com,2013-06-09 01:54:00,
2013-06-08 22:09:00,68.5,67.3,29.88,West,270,0.0,-999.0,96,-99.99,,,0.22,Acu-Link.com,2013-06-09 02:09:00,
2013-06-08 22:24:00,68.2,67.6,29.88,NW,315,0.0,-999.0,98,-99.99,,,0.22,Acu-Link.com,2013-06-09 02:24:00,
2013-06-08 22:39:00,68.0,67.7,29.89,NNW,337,0.0,-999.0,99,-99.99,,,0.22,Acu-Link.com,2013-06-09 02:39:00,
2013-06-08 22:54:00,67.5,67.2,29.89,NW,315,0.0,-999.0,99,-99.99,,,0.22,Acu-Link.com,2013-06-09 02:54:00,
2013-06-08 23:09:00,66.9,66.6,29.89,NNW,337,0.0,-999.0,99,-99.99,,,0.22,Acu-Link.com,2013-06-09 03:09:00,
2013-06-08 23:24:00,66.7,66.4,29.89,NNW,337,1.7,-999.0,99,-99.99,,,0.22,Acu-Link.com,2013-06-09 03:24:00,
2013-06-08 23:39:00,66.6,66.3,29.90,NNW,337,0.0,-999.0,99,-99.99,,,0.22,Acu-Link.com,2013-06-09 03:39:00,
2013-06-08 23:54:00,66.4,66.1,29.91,NNW,337,0.0,-999.0,99,-99.99,,,0.22,Acu-Link.com,2013-06-09 03:54:00,